Weather History for CWZA - February, 2013

Change the Weather History Date:

Tuesday, February 12, 2013

  Actual Average Record
Temperature  
Mean Temperature 44 °F -  
Max Temperature 50 °F - - ()
Min Temperature 39 °F - - ()
Degree Days  
Heating Degree Days 20    
Moisture  
Dew Point 41 °F    
Average Humidity 89    
Maximum Humidity 99    
Minimum Humidity 63    
Precipitation  
Precipitation 0.01 in - - ()
Sea Level Pressure  
Sea Level Pressure 30.30 in    
Wind  
Wind Speed 2 mph ()    
Max Wind Speed 6 mph    
Max Gust Speed -    
T = Trace of Precipitation, MM = Missing Value Source: Averaged Metar Reports

Daily Weather History Graph

Daily Weather History Graph

Search for Another Location

Airport or City:

Trip Planner

Search our weather history database for the weather conditions in past years. The results will help you decide how hot, cold, wet, or windy it might be!

Date:

Astronomy

Feb. 12, 2013 Rise Set
Actual Time 7:20 AM PST 5:22 PM PST
Civil Twilight 6:47 AM PST 5:55 PM PST
Nautical Twilight 6:10 AM PST 6:33 PM PST
Astronomical Twilight 5:33 AM PST 7:10 PM PST
Moon 8:01 AM PST (2/12) 8:51 PM PST (2/12)
Length of Visible Light 11h 08m
Length of Day
10h 02m
Waxing Crescent, 8% of the Moon is Illuminated
Feb 12
Waxing Crescent
Feb 17
First Quarter
Feb 25
Full
Mar 4
Last Quarter
Mar 11
New

Hourly Weather History & Observations

Time (PST) Temp. Windchill Dew Point Humidity Pressure Visibility Wind Dir Wind Speed Gust Speed Precip Events Conditions
12:00 AM 40.5 °F - 39.9 °F 98% 30.33 in - NNE 1.2 mph - N/A   Unknown
1:00 AM 40.8 °F - 40.5 °F 99% 30.33 in - SSE 1.2 mph - N/A   Unknown
2:00 AM 40.6 °F - 40.1 °F 98% 30.33 in - Calm Calm - 0.01 in   Unknown
3:00 AM 40.8 °F - 40.3 °F 98% 30.34 in - East 2.3 mph - N/A   Unknown
4:00 AM 41 °F - 40 °F 97% 30.34 in - ENE 1.2 mph - -  
4:00 AM 41.2 °F - 40.5 °F 97% 30.34 in - ENE 1.2 mph - N/A   Unknown
5:00 AM 42.4 °F - 41.4 °F 96% 30.34 in - East 2.3 mph - N/A   Unknown
6:00 AM 40.8 °F - 39.6 °F 95% 30.34 in - Calm Calm - N/A   Unknown
7:00 AM 40.5 °F - 39.7 °F 97% 30.34 in - Calm Calm - N/A   Unknown
8:00 AM 41.0 °F - 40.5 °F 98% 30.34 in - NW 1.2 mph - N/A   Unknown
9:00 AM 41.9 °F - 40.6 °F 95% 30.36 in - WNW 1.2 mph - N/A   Unknown
10:00 AM 43 °F - 41 °F 90% 30.37 in - NNW 2.3 mph - -  
10:00 AM 43.0 °F - 41.0 °F 93% 30.37 in - NNW 2.3 mph - N/A   Unknown
11:00 AM 44.2 °F - 41.0 °F 88% 30.35 in - SW 2.3 mph - N/A   Unknown
12:00 PM 44.8 °F 43.3 °F 41.7 °F 89% 30.35 in - SE 3.5 mph - N/A   Unknown
1:00 PM 45.9 °F 44.6 °F 41.7 °F 85% 30.32 in - SE 3.5 mph - N/A   Unknown
2:00 PM 45.7 °F - 41.5 °F 85% 30.30 in - WSW 2.3 mph - 0.01 in   Unknown
3:00 PM 45.7 °F - 42.3 °F 88% 30.28 in - ESE 2.3 mph - N/A   Unknown
4:00 PM 45 °F - 42 °F 83% 30.27 in - ESE 2.3 mph - -  
4:00 PM 45.1 °F - 41.5 °F 87% 30.27 in - ESE 2.3 mph - N/A   Unknown
5:00 PM 45.1 °F - 42.6 °F 91% 30.26 in - South 1.2 mph - N/A   Unknown
6:00 PM 45.1 °F 43.7 °F 42.6 °F 91% 30.23 in - NW 3.5 mph - N/A   Unknown
7:00 PM 45.7 °F 44.4 °F 42.3 °F 88% 30.22 in - NNW 3.5 mph - N/A   Unknown
8:00 PM 48.4 °F - 41.5 °F 77% 30.21 in - NW 5.8 mph - N/A   Unknown
9:00 PM 48.7 °F - 41.9 °F 77% 30.20 in - NW 5.8 mph - N/A   Unknown
10:00 PM 50 °F - 41 °F 63% 30.20 in - NW 4.6 mph - -  
10:00 PM 50.0 °F - 41.4 °F 72% 30.20 in - NW 4.6 mph - N/A   Unknown
11:00 PM 50.9 °F - 40.8 °F 68% 30.21 in - West 5.8 mph - N/A   Unknown